Terminal Aerodrome Forecast
Issued by NWS Aberdeen, SD

Home | Current Version | Previous Version | Text Only | Print | Product List | Glossary On
Versions: 1 2 3 4 5 6 7 8 9 10 11 12 13 14 15 16 17 18 19 20 21 22 23 24 25 26 27 28 29 30 31 32 33 34 35 36 37 38 39 40 41 42
000
FTUS43 KABR 240216 AAD
TAFABR
TAF AMD
KABR 240216Z 2402/2424 04007KT P6SM BKN060
     FM240600 01010KT P6SM OVC025
     FM241600 01014KT P6SM BKN200=

USA.gov is the U.S. government's official web portal to all federal, state and local government web resources and services.